2344 visiteurs
Prévisions de votre ville :
Vigilance : 3 départements le 27/10/20 à 06:00 - Voir la carte - Être alerté(e)

Paris Roissy CDG (95380) le 27/10/20 à 07:00 Choisir station

7.9°C 89 % SSO Rafale 29 km/h
Vit. moyenne 9 km/h

Relevés météo quotidiens pour la station de :

UTC
S: Synop
M: Metar
Loc T°C
(°C)
Td
(°C)
HR
(%)
Vis
(km)
Néb
(octa)
Vent
(km/h)
Pression
(mb)
Précipitations
(mm)
Temps
              MOY
10 min
DIR RAF 1h MESURE VAR SUR 3h    
S 00 h 02h 28.5 16.1 47 20 1/8 - - 7 1012.6 -0.3/3h 0.0/6h - 0.0/3h
S 01 h 03h 27.8 16.1 49 20 2/8 2 6 1012.1 -0.8/3h 0.0/1h
S 02 h 04h 26.8 15.8 51 20 2/8 4 13 1012.3 -0.5/3h 0.0/1h
S 03 h 05h 24.9 15.8 57 20 1/8 4 6 1012.1 -0.6/3h 0.0/3h
S 04 h 06h 25.4 16.0 56 18 1/8 - - 7 1012.3 +0.1/3h 0.0/1h
S 05 h 07h 25.6 16.2 56 20 2/8 4 7 1012.5 +0.1/3h 0.0/1h
S 06 h 08h 27.3 16.6 52 20 2/8 6 11 1012.6 +0.6/3h 0.0/12h - 0.0/3h - 0.0/24h
S 07 h 09h 28.3 17.2 51 18 2/8 7 13 1012.7 +0.5/3h 0.0/1h
S 08 h 10h 30.8 17.5 45 18 2/8 6 13 1012.6 +0.3/3h 0.0/1h
S 09 h 11h 34.2 17.0 36 18 2/8 6 18 1012.2 -0.2/3h 0.0/3h
S 10 h 12h 37.1 16.1 29 18 2/8 7 19 1011.7 -0.7/3h 0.0/1h
S 11 h 13h 39.3 13.0 21 18 2/8 15 28 1011.0 -1.3/3h 0.0/1h
S 12 h 14h 40.4 12.3 19 18 0/8 19 31 1010.5 -1.5/3h 0.0/6h - 0.0/3h
S 13 h 15h 41.8 12.6 18 18 1/8 20 43 1009.8 -1.7/3h 0.0/1h
S 14 h 16h 41.8 10.8 16 19 1/8 9 40 1009.2 -1.7/3h 0.0/1h
S 15 h 17h 41.4 9.6 15 17 1/8 11 40 1008.7 -1.8/3h 0.0/3h
S 16 h 18h 41.1 10.3 16 20 2/8 17 41 1008.1 -1.8/3h 0.0/1h
S 17 h 19h 40.3 11.4 18 19 - 17 35 1007.6 -1.7/3h 0.0/1h -
S 18 h 20h 37.4 10.7 20 20 6/8 13 70 1007.6 -1.2/3h 0.0/1h
S 19 h 21h 35.7 11.4 23 20 7/8 2 68 1007.6 -0.6/3h 0.0/1h
S 20 h 22h 33.9 10.5 24 20 7/8 9 47 1008.5 +0.7/3h 0.0/1h
S 21 h 23h 31.1 12.0 31 20 5/8 7 26 1008.4 +0.6/3h 0.0/3h
S 22 h 00h 30.0 12.4 34 20 5/8 4 22 1009.1 +1.3/3h 0.0/1h
S 23 h 01h 30.5 12.9 34 15 8/8 6 30 1009.5 +0.9/3h 0.0/1h
evolution des temperatures
cumul des precipitations
vent moyen et rafales
pression atmospherique

Un tiret (-) signifie que les données ne sont pas disponibles.

Passez la souris sur les pictos temps pour avoir plus de précisions. Passez les flèches sur l'icône de la direction du vent pour voir la direction précise en degrés.

Les données de l'heure en cours sont disponibles à partir de H+15 minutes.


S signifie station Synop, plus complète qu'une station Metar (M). Il y a +1h de différence entre l'heure UTC et l'heure légale en hiver et +2h en été.

Td est la mesure du point de rosée.

HR est l'humidité relative/p>

Vis est la visibilité

Néb est la nébulosité du ciel (couverture nuageuse) exprimée en octas (de 0/8 à 8/8).

Vent moy 10 min donne le vent moyen sur les 10 minutes qui précèdent le relevé.

Vent raf 1h donne la rafale maximale mesurée dans l'heure qui précède le relevé.


Les données les plus anciennes remontent à avril 2014.

Les données présentées sur cette page proviennent des stations météo officielles. Les relevés sont effectués aux normes en vigueur (anémomètre à 10m de haut, thermomètre sous abri normalisé à 2m du sol...)

Météo 60 décline toute responsabilité en cas d'absence de données, d'erreurs, de mauvaise utilisation ou interprétation et n'est pas habilité à fournir des certificats intempéries.